SCP
0 0 0 0 0 0 0 0 0 0 0 0 0 0 0 0 0 0 0 0 0 0 0 0 0 0 0 0 0 0 0 0 0 0 0 0 0 0 0 0 0 0 0
0 0 0 0 0 0 0 0 0 0 0 0 0 0 0 0 0 0 0 0 0 0 0 0 0 0 0 0 0 0 0 0 0 0 0 0 0 0 0 0 0 0 0
0 0 0 0 0 0 0 0 0 0 0 0 0 0 0 0 0 0 0 0 0 0 0 0 0 0 0 0 0 0 0 0 0 0 0 0 0 0 0 0 0 0 0
0 0 0 0 0 0 0 0 0 0 0 0 0 0 0 0 0 0 0 0 0 0 0 0 0 0 0 0 0 0 0 0 0 0 0 0 0 0 0 0 0 0 0
0 0 0 0 0 0 0 0 0 0 0 0 0 0 0 0 0 0 0 0 0 0 0 0 0 0 0 0 0 0 0 0 0 0 0 0 0 0 0 0 0 0 0
0 0 0 0 0 0 0 0 0 0 0 0 0 0 0 0 0 0 0 0 0 0 0 0 0 0 0 0 0 0 0 0 0 0 0 0 0 0 0 0 0 0 0
0 0 0 0 0 0 0 0 0 0 0 0 0 0 0 0 0 0 0 0 0 0 0 0 0 0 0 0 0 0 0 0 0 0 0 0 0 0 0 0 0 0 0
0 0 0 0 0 0 0 0 0 0 0 0 0 0 0 0 0 0 0 0 0 0 0 0 0 0 0 0 0 0 0 0 0 0 0 0 0 0 0 0 0 0 0
0 0 0 0 0 0 0 0 0 0 0 0 0 0 0 0 0 0 0 0 0 0 0 0 0 0 0 0 0 0 0 0 0 0 0 0 0 0 0 0 0 0 0
0 0 0 0 0 0 0 0 0 0 0 0 0 0 0 0 0 0 0 0 0 0 0 0 0 0 0 0 0 0 0 0 0 0 0 0 0 0 0 0 0 0 0
0 0 0 0 0 0 0 0 0 0 0 0 0 0 0 0 0 0 0 0 0 0 0 0 0 0 0 0 0 0 0 0 0 0 0 0 0 0 0 0 0 0 0
0 0 0 0 0 0 0 0 0 0 0 0 0 0 0 0 0 0 0 0 0 0 0 0 0 0 0 0 0 0 0 0 0 0 0 0 0 0 0 0 0 0 0
0 0 0 0 0 0 0 0 0 0 0 0 0 0 0 0 0 0 0 0 0 0 0 0 0 0 0 0 0 0 0 0 0 0 0 0 0 0 0 0 0 0 0
0 0 0 0 0 0 0 0 0 0 0 0 0 0 0 0 0 0 0 0 0 0 0 0 0 0 0 0 0 0 0 0 0 0 0 0 0 0 0 0 0 0 0
0 0 0 0 0 0 0 0 0 0 0 0 0 0 0 0 0 0 0 0 0 0 0 0 0 0 0 0 0 0 0 0 0 0 0 0 0 0 0 0 0 0 0
0 0 0 0 0 0 0 0 0 0 0 0 0 0 0 0 0 0 0 0 0 0 0 0 0 0 0 0 0 0 0 0 0 0 0 0 0 0 0 0 0 0 0
0 0 0 0 0 0 0 0 0 0 0 0 0 0 0 0 0 0 0 0 0 0 0 0 0 0 0 0 0 0 0 0 0 0 0 0 0 0 0 0 0 0 0
0 0 0 0 0 0 0 0 0 0 0 0 0 0 0 0 0 0 0 0 0 0 0 0 0 0 0 0 0 0 0 0 0 0 0 0 0 0 0 0 0 0 0
0 0 0 0 0 0 0 0 0 0 0 0 0 0 0 0 0 0 0 0 0 0 0 0 0 0 0 0 0 0 0 0 0 0 0 0 0 0 0 0 0 0 0
0 0 0 0 0 0 0 0 0 0 0 0 0 0 0 0 0 0 0 0 0 0 0 0 0 0 0 0 0 0 0 0 0 0 0 0 0 0 0 0 0 0 0
0 0 0 0 0 0 0 0 0 0 0 0 0 0 0 0 0 0 0 0 0 0 0 0 0 0 0 0 0 0 0 0 0 0 0 0 0 0 0 0 0 0 0
0 0 0 0 0 0 0 0 0 0 0 0 0 0 0 0 0 0 0 0 0 0 0 0 0 0 0 0 0 0 0 0 0 0 0 0 0 0 0 0 0 0 0
0 0 0 0 0 0 0 0 0 0 0 0 0 0 0 0 0 0 0 0 0 0 0 0 0 0 0 0 0 0 0 0 0 0 0 0 0 0 0 0 0 0 0
0 0 0 0 0 0 0 0 0 0 0 0 0 0 0 0 0 0 0 0 0 0 0 0 0 0 0 0 0 0 0 0 0 0 0 0 0 0 0 0 0 0 0
0 0 0 0 0 0 0 0 0 0 0 0 0 0 0 0 0 0 0 0 0 0 0 0 0 0 0 0 0 0 0 0 0 0 0 0 0 0 0 0 0 0 0
0 0 0 0 0 0 0 0 0 0 0 0 0 0 0 0 0 0 0 0 0 0 0 0 0 0 0 0 0 0 0 0 0 0 0 0 0 0 0 0 0 0 0
Wind_Speed_500mb
20 20 21 24 29 25 28 30 28 21 27 29 19 18 18 16 15 13 15 13 8 4 5 8 5 7 14 17 14 14 16 16 21 25 28 33 35 37 39 42 43 42 42
10 11 11 10 11 13 17 16 15 17 17 14 16 10 9 9 10 7 8 7 2 4 2 2 1 1 4 7 9 11 13 14 16 21 25 29 32 35 35 35 35 37 36
1 5 7 8 10 10 4 7 5 7 8 7 7 5 4 6 5 5 5 5 5 4 5 3 3 3 6 9 11 13 17 19 20 20 23 26 28 29 28 28 30 32 35
7 5 6 8 9 9 8 9 9 11 10 10 9 8 9 11 10 8 8 6 6 4 4 5 6 8 11 14 16 18 18 19 19 20 21 24 26 28 31 31 27 30 34
9 9 11 12 13 13 12 12 11 12 13 14 14 15 15 15 15 12 7 4 1 4 6 8 10 13 14 16 18 18 18 19 18 19 20 22 25 29 33 37 39 37 40
12 13 15 16 16 17 18 19 19 19 19 18 16 14 12 11 7 4 3 5 7 9 10 11 13 15 17 18 18 19 18 17 17 17 19 23 28 31 36 40 43 49 49
12 13 15 17 17 18 18 18 17 17 15 12 11 10 7 5 6 5 7 8 10 10 12 13 15 16 17 17 17 17 17 16 16 19 22 25 30 34 38 41 43 46 50
13 13 15 16 15 15 15 13 12 12 10 9 9 8 7 6 7 8 9 11 10 11 11 12 13 14 15 14 15 17 19 20 20 22 25 28 33 39 40 45 49 53 52
14 13 11 11 11 11 10 9 9 9 8 7 7 7 6 7 7 7 8 10 10 10 11 11 12 13 14 13 15 18 20 23 24 28 31 33 36 40 44 45 48 55 62
15 15 15 13 12 10 9 8 7 6 4 4 5 7 9 10 9 9 10 12 12 12 11 11 12 13 17 16 18 19 20 21 23 25 27 31 34 37 43 46 50 53 57
15 14 14 15 14 13 11 10 8 5 3 4 7 8 11 12 13 13 13 14 12 12 12 13 14 17 20 25 23 24 25 23 25 26 28 31 34 38 41 44 47 50 55
14 14 13 13 12 11 10 8 5 6 8 9 11 12 13 14 15 16 15 14 15 14 14 14 16 20 23 24 24 24 24 25 23 24 26 29 33 36 38 42 45 47 52
19 19 16 14 14 13 11 10 11 12 13 14 15 16 16 17 18 18 17 16 14 14 17 19 21 22 23 23 24 22 20 20 22 25 28 31 34 37 41 42 44 50 47
23 23 20 18 16 17 17 18 18 18 18 19 20 20 20 19 20 20 19 17 15 18 20 21 22 24 23 20 20 19 20 22 25 28 30 32 34 38 42 48 49 51 53
23 23 22 23 24 24 23 23 24 25 26 25 25 26 24 22 22 22 21 20 19 24 24 24 23 21 19 19 20 21 24 26 28 30 33 36 37 39 40 45 51 54 57
30 29 28 29 30 29 29 30 29 30 30 29 28 26 26 25 25 24 25 25 24 27 22 20 18 18 18 19 21 23 25 28 30 33 35 39 40 43 45 45 50 55 61
31 32 34 35 35 35 35 35 33 34 34 33 30 29 30 30 30 29 28 27 26 26 21 22 21 21 21 22 24 26 26 29 31 35 39 43 47 48 53 51 53 56 59
35 37 39 41 41 42 41 40 40 39 37 35 34 34 34 35 33 31 29 29 26 24 25 24 24 25 24 25 27 31 32 35 38 40 43 47 51 55 57 57 57 62 64
41 42 42 44 45 46 46 47 46 43 41 39 38 37 35 34 34 34 34 32 27 28 29 27 28 29 30 32 34 36 40 42 44 46 48 51 55 61 63 62 63 63 66
46 47 49 50 51 52 50 48 45 44 42 40 39 34 37 38 37 35 36 35 33 32 34 37 35 38 39 40 42 45 48 50 53 54 55 57 59 64 69 68 67 69 66
49 51 53 54 53 50 48 48 46 45 44 43 39 38 41 43 40 40 40 40 39 39 40 43 46 47 47 49 53 55 57 60 62 63 64 65 66 70 71 74 73 70 69
50 51 53 51 48 49 47 46 46 46 44 43 39 40 45 48 44 43 44 44 44 47 49 51 53 56 57 59 60 63 66 69 70 71 74 76 76 76 76 77 75 73 70
48 49 49 48 47 46 46 46 46 45 43 42 41 43 48 50 50 50 49 48 49 52 53 57 62 64 64 66 69 72 75 76 77 78 83 84 83 80 77 78 75 74 71
45 45 44 43 43 45 46 45 45 44 44 44 45 47 48 50 53 55 55 54 56 58 60 63 66 68 70 72 74 76 79 81 83 85 84 88 87 82 79 77 73 70 69
41 41 42 42 43 43 43 43 43 44 46 48 48 50 51 52 55 56 58 60 63 65 66 68 70 72 73 74 76 79 80 81 85 85 85 85 85 81 77 74 69 65 61
40 41 41 42 43 42 42 43 45 47 50 51 53 54 55 57 58 60 62 64 66 68 70 71 72 74 76 77 77 77 79 81 82 81 82 81 78 73 69 67 63 60 56
Wind_Direction_500mb
251 254 252 250 245 250 239 242 246 240 266 261 256 276 285 263 269 249 256 261 245 183 168 242 257 266 290 280 291 292 277 267 256 260 271 282 289 295 304 310 314 318 320
248 243 244 241 231 231 233 213 227 229 233 235 270 249 260 264 257 246 265 253 257 277 262 291 350 4 292 296 307 301 300 304 295 290 290 292 297 303 310 317 319 321 322
98 161 184 205 217 218 161 126 153 172 153 174 155 161 184 222 207 198 189 173 146 148 108 92 23 339 313 321 320 314 314 312 308 302 300 303 310 315 317 321 324 324 324
104 139 171 188 203 204 179 158 135 143 150 154 153 175 168 160 143 145 126 99 82 78 35 354 347 337 333 327 322 325 328 327 326 323 318 317 317 319 323 324 323 330 328
138 148 151 148 151 153 154 148 154 151 149 139 134 136 137 129 126 115 115 107 37 339 346 343 341 339 339 340 338 337 336 331 326 321 319 321 323 326 332 337 336 335 331
121 128 126 123 120 119 120 121 122 123 120 116 117 115 120 134 124 114 54 10 355 351 348 346 348 347 343 338 338 332 331 334 335 334 335 333 333 335 335 336 335 338 339
127 127 125 122 123 123 120 117 116 115 110 110 107 102 99 94 67 39 15 360 352 347 347 345 342 340 338 337 337 333 339 342 337 336 335 334 332 332 334 335 335 335 333
135 135 133 129 130 129 127 125 117 107 101 93 85 76 63 53 38 23 4 348 340 332 327 327 327 332 334 336 335 338 337 335 336 333 334 334 331 329 333 332 331 330 328
155 152 149 147 149 143 137 128 118 107 96 83 70 54 38 22 6 349 331 327 316 316 319 325 332 336 342 339 335 334 334 333 333 330 329 330 329 325 326 327 326 327 327
181 176 172 165 156 150 143 132 119 106 76 34 1 340 330 326 320 310 307 315 318 322 327 332 335 330 329 339 341 334 333 328 326 324 325 325 324 322 324 326 327 326 325
195 187 181 178 177 175 172 169 167 176 212 266 284 297 301 306 309 311 316 315 316 319 323 324 322 324 327 329 335 331 331 333 332 331 329 327 325 325 325 324 322 323 320
210 208 207 199 197 194 203 208 225 259 274 281 287 292 298 301 303 305 310 308 310 312 306 307 309 315 317 320 323 327 330 331 332 332 329 328 326 323 322 322 321 320 320
237 236 218 209 210 213 222 240 253 262 273 280 285 289 292 294 292 289 287 291 299 299 299 306 305 307 312 317 319 321 325 331 331 330 330 328 327 327 325 323 322 318 322
228 218 215 217 226 238 246 254 259 264 269 275 278 278 279 283 282 284 282 282 289 293 294 293 301 307 307 309 311 319 322 325 328 330 329 329 328 328 327 325 326 323 322
224 221 225 233 239 246 252 258 265 270 270 273 274 275 275 276 272 271 270 273 279 283 291 296 300 300 296 297 303 313 321 325 327 326 327 328 329 328 328 325 324 325 326
223 225 232 241 250 257 261 264 267 267 271 273 272 270 267 267 270 265 262 266 274 282 292 295 292 285 283 292 303 311 315 316 321 321 321 319 322 325 326 328 325 325 325
236 238 242 248 254 257 261 264 267 271 275 277 277 272 268 265 260 256 258 265 272 282 291 284 286 287 292 299 302 306 309 308 312 314 318 319 320 323 323 326 324 324 323
244 247 250 253 255 259 264 268 270 274 275 272 268 264 264 262 256 255 258 263 270 272 278 281 283 286 290 292 295 299 304 308 311 313 315 315 316 318 320 322 322 322 322
252 253 256 259 261 264 266 268 270 272 272 269 265 266 266 260 252 253 256 262 265 269 273 273 275 279 284 288 293 297 300 303 305 307 309 310 312 312 315 318 317 318 318
255 257 258 259 259 260 264 268 271 272 271 270 267 265 257 253 252 253 258 263 266 268 270 275 277 282 287 291 293 295 297 298 300 302 304 305 306 306 308 310 311 312 314
256 255 255 256 258 262 265 267 268 267 266 264 262 255 251 252 252 253 257 262 267 270 272 274 277 281 286 289 291 293 294 295 297 299 300 300 300 300 302 303 305 307 309
257 256 256 257 259 260 262 262 260 259 259 259 257 251 253 257 258 259 261 264 269 274 276 278 279 282 285 287 289 290 291 292 294 296 295 295 296 296 297 298 300 301 303
255 255 255 255 256 257 256 257 258 260 260 260 258 253 255 261 264 265 266 268 270 272 274 276 279 282 284 285 287 288 289 291 293 292 293 294 295 296 296 295 297 298 300
252 251 252 253 253 254 256 257 259 261 261 261 261 259 258 262 266 269 271 274 275 276 277 279 280 282 283 284 285 286 288 290 290 291 292 293 295 296 295 294 294 295 296
252 252 252 253 254 257 258 258 259 261 263 265 265 264 264 266 268 271 273 275 276 278 279 280 281 283 284 285 286 288 290 290 290 291 291 292 293 294 295 294 294 293 292
252 252 252 252 253 255 259 262 264 265 267 267 268 267 267 269 272 275 276 277 279 280 280 281 282 284 285 286 288 289 289 291 292 293 293 293 292 293 293 293 292 292 291
Wind_Speed_850mb
20 20 21 24 29 25 28 30 28 21 27 29 19 18 18 16 15 13 15 13 8 4 5 8 5 7 14 17 14 14 16 16 21 25 28 33 35 37 39 42 43 42 42
10 11 11 10 11 13 17 16 15 17 17 14 16 10 9 9 10 7 8 7 2 4 2 2 1 1 4 7 9 11 13 14 16 21 25 29 32 35 35 35 35 37 36
1 5 7 8 10 10 4 7 5 7 8 7 7 5 4 6 5 5 5 5 5 4 5 3 3 3 6 9 11 13 17 19 20 20 23 26 28 29 28 28 30 32 35
7 5 6 8 9 9 8 9 9 11 10 10 9 8 9 11 10 8 8 6 6 4 4 5 6 8 11 14 16 18 18 19 19 20 21 24 26 28 31 31 27 30 34
9 9 11 12 13 13 12 12 11 12 13 14 14 15 15 15 15 12 7 4 1 4 6 8 10 13 14 16 18 18 18 19 18 19 20 22 25 29 33 37 39 37 40
12 13 15 16 16 17 18 19 19 19 19 18 16 14 12 11 7 4 3 5 7 9 10 11 13 15 17 18 18 19 18 17 17 17 19 23 28 31 36 40 43 49 49
12 13 15 17 17 18 18 18 17 17 15 12 11 10 7 5 6 5 7 8 10 10 12 13 15 16 17 17 17 17 17 16 16 19 22 25 30 34 38 41 43 46 50
13 13 15 16 15 15 15 13 12 12 10 9 9 8 7 6 7 8 9 11 10 11 11 12 13 14 15 14 15 17 19 20 20 22 25 28 33 39 40 45 49 53 52
14 13 11 11 11 11 10 9 9 9 8 7 7 7 6 7 7 7 8 10 10 10 11 11 12 13 14 13 15 18 20 23 24 28 31 33 36 40 44 45 48 55 62
15 15 15 13 12 10 9 8 7 6 4 4 5 7 9 10 9 9 10 12 12 12 11 11 12 13 17 16 18 19 20 21 23 25 27 31 34 37 43 46 50 53 57
15 14 14 15 14 13 11 10 8 5 3 4 7 8 11 12 13 13 13 14 12 12 12 13 14 17 20 25 23 24 25 23 25 26 28 31 34 38 41 44 47 50 55
14 14 13 13 12 11 10 8 5 6 8 9 11 12 13 14 15 16 15 14 15 14 14 14 16 20 23 24 24 24 24 25 23 24 26 29 33 36 38 42 45 47 52
19 19 16 14 14 13 11 10 11 12 13 14 15 16 16 17 18 18 17 16 14 14 17 19 21 22 23 23 24 22 20 20 22 25 28 31 34 37 41 42 44 50 47
23 23 20 18 16 17 17 18 18 18 18 19 20 20 20 19 20 20 19 17 15 18 20 21 22 24 23 20 20 19 20 22 25 28 30 32 34 38 42 48 49 51 53
23 23 22 23 24 24 23 23 24 25 26 25 25 26 24 22 22 22 21 20 19 24 24 24 23 21 19 19 20 21 24 26 28 30 33 36 37 39 40 45 51 54 57
30 29 28 29 30 29 29 30 29 30 30 29 28 26 26 25 25 24 25 25 24 27 22 20 18 18 18 19 21 23 25 28 30 33 35 39 40 43 45 45 50 55 61
31 32 34 35 35 35 35 35 33 34 34 33 30 29 30 30 30 29 28 27 26 26 21 22 21 21 21 22 24 26 26 29 31 35 39 43 47 48 53 51 53 56 59
35 37 39 41 41 42 41 40 40 39 37 35 34 34 34 35 33 31 29 29 26 24 25 24 24 25 24 25 27 31 32 35 38 40 43 47 51 55 57 57 57 62 64
41 42 42 44 45 46 46 47 46 43 41 39 38 37 35 34 34 34 34 32 27 28 29 27 28 29 30 32 34 36 40 42 44 46 48 51 55 61 63 62 63 63 66
46 47 49 50 51 52 50 48 45 44 42 40 39 34 37 38 37 35 36 35 33 32 34 37 35 38 39 40 42 45 48 50 53 54 55 57 59 64 69 68 67 69 66
49 51 53 54 53 50 48 48 46 45 44 43 39 38 41 43 40 40 40 40 39 39 40 43 46 47 47 49 53 55 57 60 62 63 64 65 66 70 71 74 73 70 69
50 51 53 51 48 49 47 46 46 46 44 43 39 40 45 48 44 43 44 44 44 47 49 51 53 56 57 59 60 63 66 69 70 71 74 76 76 76 76 77 75 73 70
48 49 49 48 47 46 46 46 46 45 43 42 41 43 48 50 50 50 49 48 49 52 53 57 62 64 64 66 69 72 75 76 77 78 83 84 83 80 77 78 75 74 71
45 45 44 43 43 45 46 45 45 44 44 44 45 47 48 50 53 55 55 54 56 58 60 63 66 68 70 72 74 76 79 81 83 85 84 88 87 82 79 77 73 70 69
41 41 42 42 43 43 43 43 43 44 46 48 48 50 51 52 55 56 58 60 63 65 66 68 70 72 73 74 76 79 80 81 85 85 85 85 85 81 77 74 69 65 61
40 41 41 42 43 42 42 43 45 47 50 51 53 54 55 57 58 60 62 64 66 68 70 71 72 74 76 77 77 77 79 81 82 81 82 81 78 73 69 67 63 60 56
Wind_Direction_850mb
251 254 252 250 245 250 239 242 246 240 266 261 256 276 285 263 269 249 256 261 245 183 168 242 257 266 290 280 291 292 277 267 256 260 271 282 289 295 304 310 314 318 320
248 243 244 241 231 231 233 213 227 229 233 235 270 249 260 264 257 246 265 253 257 277 262 291 350 4 292 296 307 301 300 304 295 290 290 292 297 303 310 317 319 321 322
98 161 184 205 217 218 161 126 153 172 153 174 155 161 184 222 207 198 189 173 146 148 108 92 23 339 313 321 320 314 314 312 308 302 300 303 310 315 317 321 324 324 324
104 139 171 188 203 204 179 158 135 143 150 154 153 175 168 160 143 145 126 99 82 78 35 354 347 337 333 327 322 325 328 327 326 323 318 317 317 319 323 324 323 330 328
138 148 151 148 151 153 154 148 154 151 149 139 134 136 137 129 126 115 115 107 37 339 346 343 341 339 339 340 338 337 336 331 326 321 319 321 323 326 332 337 336 335 331
121 128 126 123 120 119 120 121 122 123 120 116 117 115 120 134 124 114 54 10 355 351 348 346 348 347 343 338 338 332 331 334 335 334 335 333 333 335 335 336 335 338 339
127 127 125 122 123 123 120 117 116 115 110 110 107 102 99 94 67 39 15 360 352 347 347 345 342 340 338 337 337 333 339 342 337 336 335 334 332 332 334 335 335 335 333
135 135 133 129 130 129 127 125 117 107 101 93 85 76 63 53 38 23 4 348 340 332 327 327 327 332 334 336 335 338 337 335 336 333 334 334 331 329 333 332 331 330 328
155 152 149 147 149 143 137 128 118 107 96 83 70 54 38 22 6 349 331 327 316 316 319 325 332 336 342 339 335 334 334 333 333 330 329 330 329 325 326 327 326 327 327
181 176 172 165 156 150 143 132 119 106 76 34 1 340 330 326 320 310 307 315 318 322 327 332 335 330 329 339 341 334 333 328 326 324 325 325 324 322 324 326 327 326 325
195 187 181 178 177 175 172 169 167 176 212 266 284 297 301 306 309 311 316 315 316 319 323 324 322 324 327 329 335 331 331 333 332 331 329 327 325 325 325 324 322 323 320
210 208 207 199 197 194 203 208 225 259 274 281 287 292 298 301 303 305 310 308 310 312 306 307 309 315 317 320 323 327 330 331 332 332 329 328 326 323 322 322 321 320 320
237 236 218 209 210 213 222 240 253 262 273 280 285 289 292 294 292 289 287 291 299 299 299 306 305 307 312 317 319 321 325 331 331 330 330 328 327 327 325 323 322 318 322
228 218 215 217 226 238 246 254 259 264 269 275 278 278 279 283 282 284 282 282 289 293 294 293 301 307 307 309 311 319 322 325 328 330 329 329 328 328 327 325 326 323 322
224 221 225 233 239 246 252 258 265 270 270 273 274 275 275 276 272 271 270 273 279 283 291 296 300 300 296 297 303 313 321 325 327 326 327 328 329 328 328 325 324 325 326
223 225 232 241 250 257 261 264 267 267 271 273 272 270 267 267 270 265 262 266 274 282 292 295 292 285 283 292 303 311 315 316 321 321 321 319 322 325 326 328 325 325 325
236 238 242 248 254 257 261 264 267 271 275 277 277 272 268 265 260 256 258 265 272 282 291 284 286 287 292 299 302 306 309 308 312 314 318 319 320 323 323 326 324 324 323
244 247 250 253 255 259 264 268 270 274 275 272 268 264 264 262 256 255 258 263 270 272 278 281 283 286 290 292 295 299 304 308 311 313 315 315 316 318 320 322 322 322 322
252 253 256 259 261 264 266 268 270 272 272 269 265 266 266 260 252 253 256 262 265 269 273 273 275 279 284 288 293 297 300 303 305 307 309 310 312 312 315 318 317 318 318
255 257 258 259 259 260 264 268 271 272 271 270 267 265 257 253 252 253 258 263 266 268 270 275 277 282 287 291 293 295 297 298 300 302 304 305 306 306 308 310 311 312 314
256 255 255 256 258 262 265 267 268 267 266 264 262 255 251 252 252 253 257 262 267 270 272 274 277 281 286 289 291 293 294 295 297 299 300 300 300 300 302 303 305 307 309
257 256 256 257 259 260 262 262 260 259 259 259 257 251 253 257 258 259 261 264 269 274 276 278 279 282 285 287 289 290 291 292 294 296 295 295 296 296 297 298 300 301 303
255 255 255 255 256 257 256 257 258 260 260 260 258 253 255 261 264 265 266 268 270 272 274 276 279 282 284 285 287 288 289 291 293 292 293 294 295 296 296 295 297 298 300
252 251 252 253 253 254 256 257 259 261 261 261 261 259 258 262 266 269 271 274 275 276 277 279 280 282 283 284 285 286 288 290 290 291 292 293 295 296 295 294 294 295 296
252 252 252 253 254 257 258 258 259 261 263 265 265 264 264 266 268 271 273 275 276 278 279 280 281 283 284 285 286 288 290 290 290 291 291 292 293 294 295 294 294 293 292
252 252 252 252 253 255 259 262 264 265 267 267 268 267 267 269 272 275 276 277 279 280 280 281 282 284 285 286 288 289 289 291 292 293 293 293 292 293 293 293 292 292 291